Regional Weather Roundup
Issued by NWS

Home | Current Version | Previous Version | Graphics & Text | Print | Product List | Glossary On
Versions: 1 2 3 4 5 6 7 8 9 10 11 12 13 14 15 16 17 18 19 20 21 22 23 24 25 26 27 28 29 30 31 32 33 34 35 36 37 38 39 40 41 42 43 44 45 46 47 48 49 50
000
ASUS43 KOAX 180910
RWRNE

WEATHER ROUNDUP FOR NEBRASKA
NATIONAL WEATHER SERVICE OMAHA NE
300 AM CST MON DEC 18 2017

NOTES: SATELLITE DATA IS BEING USED TO AUGMENT CLOUD COVER ABOVE
       12000 FEET.
       "FAIR" INDICATES FEW OR NO CLOUDS BELOW 12,000 FEET WITH NO
       SIGNIFICANT WEATHER AND/OR OBSTRUCTIONS TO VISIBILITY.


NEZ001>004-019>022-054>056-181000-
NEBRASKA PANHANDLE

CITY           SKY/WX    TMP DP  RH WIND       PRES   REMARKS
SCOTTSBLUFF    CLOUDY    22  13  68 CALM      29.93F
ALLIANCE       CLOUDY    15  11  83 W8        29.91S WCI   4
CHADRON        CLEAR     23  16  74 CALM      29.90F
GORDON         FAIR      26  18  70 SW5       29.87S WCI  21
KIMBALL        CLOUDY    20  17  90 W6        29.96R WCI  12
SIDNEY         CLOUDY    21  18  88 W8        29.96S WCI  11
$$

NEZ057>060-069>072-079>082-181000-
SOUTHWEST NEBRASKA

CITY           SKY/WX    TMP DP  RH WIND       PRES   REMARKS
NORTH PLATTE   CLOUDY    20  18  92 W6        29.94S WCI  12
IMPERIAL       CLOUDY    24  20  84 W9        29.97S WCI  14
LEXINGTON      CLOUDY    26  22  87 SW5       29.95S WCI  20
MCCOOK         CLOUDY    22  20  92 SW13      29.99R WCI  10
OGALLALA       CLOUDY    21  19  91 SW9       29.96R WCI  11
$$

NEZ005>010-023>029-035>040-094-181000-
NORTH CENTRAL NEBRASKA

CITY           SKY/WX    TMP DP  RH WIND       PRES   REMARKS
VALENTINE      CLOUDY    30  24  78 W7        29.86S WCI  23
AINSWORTH      CLOUDY    30  26  86 W10       29.87R WCI  21
BROKEN BOW     CLEAR     30  23  75 W9        29.91R WCI  22
O`NEILL        CLOUDY    32  29  90 W12       29.85R WCI  23
ORD            CLEAR     31  27  85 SW14      29.89S WCI  21
THEDFORD       CLEAR     29  22  74 W9        29.90R WCI  21
$$

NEZ041-046>049-061>064-073>077-083>087-181000-
SOUTH CENTRAL NEBRASKA

CITY           SKY/WX    TMP DP  RH WIND       PRES   REMARKS
GRAND ISLAND   CLEAR     31  28  89 SW16      29.93F WCI  20
AURORA         CLEAR     30  28  90 SW13      29.94F WCI  20
HASTINGS       CLEAR     28  24  85 SW6       29.95F WCI  22
HEBRON         CLOUDY    24  22  94 CALM      30.00F
HOLDREGE       CLEAR     30  28  90 W12G17    29.96F WCI  21
KEARNEY        CLEAR     28  25  88 SW13      29.95F WCI  17
YORK           CLEAR     27  27 100 SW9       29.95F WCI  17
$$

NEZ011>018-030>034-042>045-181000-
NORTHEAST NEBRASKA

CITY           SKY/WX    TMP DP  RH WIND       PRES   REMARKS
NORFOLK        CLEAR     25  22  88 SW9       29.88F WCI  15
ALBION         CLEAR     33  29  85 SW10      29.88F WCI  25
BLAIR          CLOUDY    27  25  94 S8        29.94F FOG     WCI  18
COLUMBUS       CLOUDY    18  16  93 CALM      29.93F FOG
FREMONT        CLOUDY    24  22  96 CALM      29.94F FOG
TEKAMAH        CLOUDY    18  15  88 SE9       29.95F FOG     WCI   7
WAYNE          CLOUDY    22  21  96 S6        29.89F WCI  15
$$

NEZ050>053-065>068-078-088>093-181000-
SOUTHEAST NEBRASKA

CITY           SKY/WX    TMP DP  RH WIND       PRES   REMARKS
LINCOLN        CLOUDY    25  23  92 S5        29.99S WCI  19
OMAHA EPPLEY   CLOUDY    25  21  85 SE9       29.98S WCI  15
BEATRICE       CLEAR     27  26  96 SW3       29.99F
FALLS CITY     PTCLDY    33  31  92 SW5       30.01S FOG     WCI  29
NEBRASKA CITY    N/A     28  28 100 SW10      29.99S FOG     WCI  18
PLATTSMOUTH    CLEAR     28  27  97 S6        29.98R FOG     WCI  21
$$

NEZ044-045-051>053-067-181000-
OMAHA AREA

CITY           SKY/WX    TMP DP  RH WIND       PRES   REMARKS
OMAHA EPPLEY   CLOUDY    25  21  85 SE9       29.98S WCI  15
BLAIR          CLOUDY    27  25  94 S8        29.94F FOG     WCI  18
FREMONT        CLOUDY    24  22  96 CALM      29.94F FOG
MILLARD        CLOUDY    26  25  94 SE5       29.97F FOG     WCI  21
OFFUTT AFB     FOG       19  17  90 CALM      29.98S VSB 1/4
PLATTSMOUTH    CLEAR     28  27  97 S6        29.98R FOG     WCI  21
WAHOO            N/A     22  20  93 SE6       29.95F FOG     WCI  14
$$




USA.gov is the U.S. government's official web portal to all federal, state and local government web resources and services.